Забитуй

Россия / Иркутская область     53°16′28″N   102°49′44″E
темп.,
°C
ветер,
м/с
пор.,
м/с
влажн.,
%
обл.,
%
осадки,
мм/ч
давл.,
гПа
погр.,
м
6 мая, чт
чт623:00+1зсз37544 0.0 1021132
02:000з366696 0.0 1021110
05:000юз2259100 0.0 101925
08:00+3ю4546100 0.0 1018215
11:00+5ю5743100 0.3 1014686
14:00+4юз4679100 0.9 1013606
17:00+4юз2696100 1.9 1011208
20:00+5зсз4996100 4.6 1011433
7 мая, пт
пт723:00+5сз61194100 5.1 1011875
02:00+3ссз51286100 6.4 1013925
05:00+2ссз5983100 0.0 1015665
08:00+2сз4682100 0.3 1017745
11:00+5сз3459100 0.0 1016978
14:00+8ссз234293 0.0 10141407
17:00+9всв0136100 0.0 10131454
20:00+7юз356998 0.0 1013187
8 мая, сб
сб823:00+4ююв248294 0.0 101369
02:00+4вюв4976100 0.0 1011236
05:00+4юв1178100 0.0 101216
08:00+3юз2388100 2.6 1015239
11:00+8зсз4876100 0.1 1013876
14:00+12ссз6853100 0.5 10111842
17:00+12сз5751100 0.4 10111752
20:00+10зсз5767100 0.8 1013274
9 мая, вс
вс923:00+8зсз598198 0.5 1015338
02:00+5з379379 0.5 1015186
05:00+4ююз3589100 0.0 101391
08:00+7ю247699 0.0 1012173
11:00+11ю4455100 0.0 1009485
14:00+13всв1147100 0.0 10061406
17:00+7ссз81171100 7.8 10111043
20:00+6зсз6979100 8.1 1014888
10 мая, пн
пн1023:00+5зсз61181100 0.3 1016798
02:00+3сз6127810 0.3 1017770
05:00+1зсз6138613 0.0 1017618
08:00+2зсз41098100 0.2 1018565
11:00+2сз4897100 0.8 1019558
14:00+3сз5995100 0.9 1019724
17:00+4сз489699 0.1 1019530
20:00+4зсз4691100 0.2 1019358